星链-4608 (STARLINK-4608 )

导读

STARLINK-4608是美国太空探索技术公司Starlink星链互联网卫星星座的一员,于2022年8月28日发射升空。星链旨在打造全球卫星互联网服务,该卫星入轨后,承担着为全球偏远地区、海洋空域等区域提供宽带互联网接入服务的任务,进一步完善了星链星座的组网覆盖能力。

基本信息
目录编号:
53621
目录名称:
STARLINK-4608
国际标识:
2022-104AK
轨道中心:
EARTH
卫星名称:
星链-4608
卫星全名:
星链-4608 (STARLINK-4608 )
卫星状态:
在轨 (已飞行1476 天)
发射日期:
2022-08-28 UTC
国别 :
美国 (US)
星等 :
--
该卫星已列入 空间交会检测服务 Space Conjunction Data Service (SCDS) ,当前飞行风险评估等级: 无高风险
轨道信息
数据来源 国际轨道数据 AOE轨道数据
星历时间 2026-09-12T10:06:27+0800
8小时前
查看轨道信息
2026-09-06T22:00:00+0800
5天前
查看轨道信息
半长轴 6840.871km 6840.852km
偏心率 0.0001096 0.0001114
轨道倾角 53.160° 53.158°
近地点辐角 93.685° 58.530°
升交点赤经 107.000° 132.732°
平近点角 266.428° 118.906°
近地点 461.984km 461.952km
远地点 463.484km 463.478km
周期 93.848分钟 93.848分钟
每日圈数 15.343897 15.343961
详细信息
固有亮度:
5
最大亮度:
2.5
卫星平台:
Starlink v1.5
覆盖范围:
全球
运营商:
太空探索技术公司
运营商所在国:
美国
制造商(研发单位):
太空探索技术公司
制造商所在国:
美国
使用方式:
暂无
卫星简介
星链(Starlink)计划是由太空探索技术公司(SpaceX)提出的一个巨型低轨卫星互联网星座项目,计划在2019年至2024年间在太空搭建由约1.2万颗卫星组成的“星链”网络,其中1584颗将部署在地球上空550千米处的近地轨道,并从2020年开始工作。该卫星仍在工作。
2D轨道图
3D轨道图
轨道高度分析图
轨道倾角分析图
轨道综合分析图
查看轨道综合分析图
交会数据列表
事件ID 空间交会对象 最接近时刻(TCA) 交会距离 交会风险概率(CRP) 交会风险指数(CRI) 操作
CDM_260914-052405-362106-576121
2026-09-14T
05:24:59+0000
0.589 km
远距离
9.100852E-5 中风险 0.74
CDM_260914-065805-362106-576121
2026-09-14T
06:58:46+0000
1.279 km
极远距离
7.305809E-6 低风险 0.52
CDM_260913-044205-248805-362122
2026-09-13T
04:42:18+0000
2.326 km
极远距离
1.79549E-6 低风险 0.4
CDM_260914-035105-362106-576121
2026-09-14T
03:51:11+0000
2.142 km
极远距离
1.617778E-6 低风险 0.39
CDM_260914-094805-257605-362121
2026-09-14T
09:48:59+0000
2.351 km
极远距离
1.561978E-6 低风险 0.39
CDM_260913-041005-270005-362121
2026-09-13T
04:10:32+0000
2.642 km
极远距离
1.105728E-6 低风险 0.36
CDM_260913-063105-270005-362121
2026-09-13T
06:31:15+0000
2.648 km
极远距离
1.102792E-6 低风险 0.36
与全量物体交会距离演化趋势
与全量物体交会风险概率演化趋势